Weather Roundup
Issued by NWS Springfield, MO

Home | Current Version | Previous Version | Text Only | Print | Product List | Glossary On
Versions: 1 2 3 4 5 6 7 8 9 10 11 12 13 14 15 16 17 18 19 20 21 22 23 24 25 26 27 28 29 30 31 32 33 34 35 36 37 38 39 40 41 42 43 44 45 46 47 48 49 50
000
NZUS99 KSGF 291757
HRRSGF

HOURLY WEATHER
NATIONAL WEATHER SERVICE SPRINGFIELD MO
100 PM CDT MON AUG 29 2016

......SGF CWA......

CITY           SKY/WX    TMP DP  RH WIND       PRES   REMARKS
SPRINGFIELD    MOSUNNY   91  65  41 CALM      30.18F HX  93
6HR MIN TEMP:  72; 6HR MAX TEMP:  91;

JOPLIN         MOSUNNY   88  71  57 SW6       30.17F HX  94
6HR MIN TEMP:  71; 6HR MAX TEMP:  89;

ROLLA          SUNNY     88  70  55 VRB3      30.20F HX  93
6HR MIN TEMP:  71; 6HR MAX TEMP:  89;

BRANSON        MOSUNNY   88  72  58 E6        30.20F HX  94

......SURROUNDING SGF CWA......

CITY           SKY/WX    TMP DP  RH WIND       PRES   REMARKS
CHANUTE        MOSUNNY   85  72  65 SE7       30.18S HX  91
PARSONS        LGT RAIN  77  73  87 W3        30.19F
COFFEYVILLE    CLOUDY    75  72  90 NW3       30.16F
EMPORIA        MOSUNNY   86  71  60 SE7       30.19F HX  91
HARRISON AR    MOSUNNY   87  71  58 E5        30.19F HX  93

......KANSAS AND MISSOURI......

CITY           SKY/WX    TMP DP  RH WIND       PRES   REMARKS
KANSAS CTY INT MOSUNNY   88  71  57 S6        30.20F HX  94
SEDALIA        MOSUNNY   88  70  55 E3        30.21F HX  93
ST JOSEPH      PTSUNNY   89  70  53 CALM      30.19S HX  94
ST LOUIS       MOSUNNY   92  71  50 SE8       30.20F HX  98
WICHITA        CLOUDY    84  72  67 E10       30.18F
TOPEKA         SUNNY     88  69  53 VRB3      30.18F HX  92
OLATHE         MOSUNNY   87  70  56 SE7       30.20F HX  92

......TENNESSEE......

CITY           SKY/WX    TMP DP  RH WIND       PRES   REMARKS
MEMPHIS        NOT AVBL
NASHVILLE      MOSUNNY   91  70  49 NE6       30.16F HX  96

......ARKANSAS.......

CITY           SKY/WX    TMP DP  RH WIND       PRES   REMARKS
FAYETTEVILLE   MOSUNNY   89  67  47 E7        30.16F HX  92
FT SMITH       SUNNY     91  71  51 NE9       30.10F HX  97
LITTLE ROCK    PTSUNNY   92  74  55 N6        30.09F HX 101

......OKLAHOMA.......

CITY           SKY/WX    TMP DP  RH WIND       PRES   REMARKS
TULSA          PTSUNNY   84  73  69 N8        30.14S HX  90
PONCA CITY     CLOUDY    82  70  66 SE16G22   30.16F
MCALESTER      SUNNY     93  68  43 VRB3      30.11F HX  97
OKLAHOMA CITY  MOSUNNY   89  67  47 E8        30.14F HX  92

......IOWA............

CITY           SKY/WX    TMP DP  RH WIND       PRES   REMARKS
DES MOINES     NOT AVBL
QUAD CITIES    SUNNY     86  74  67 VRB3      30.21F HX  94

......ILLINOIS........

CITY           SKY/WX    TMP DP  RH WIND       PRES   REMARKS
QUINCY         PTSUNNY   82  72  69 N5        30.20F
CHICAGO        PTSUNNY   85  70  60 E7        30.23F




USA.gov is the U.S. government's official web portal to all federal, state and local government web resources and services.